Weather History for Staunton, VA

Change the Weather History Date:

Wednesday, May 14, 2014

  Actual Average Record
Temperature  
Mean Temperature 67 °F -  
Max Temperature 77 °F 73 °F 86 °F (2004)
Min Temperature 57 °F 50 °F 32 °F (2013)
Cooling Degree Days 2    
Growing Degree Days 17 (Base 50)    
Moisture  
Dew Point 61 °F    
Average Humidity 83    
Maximum Humidity 96    
Minimum Humidity 62    
Precipitation  
Precipitation 0.00 in - - ()
Sea Level Pressure  
Sea Level Pressure 30.17 in    
Wind  
Wind Speed 2 mph (South)    
Max Wind Speed 13 mph    
Max Gust Speed 18 mph    
Visibility 7 miles    
Events Fog , Thunderstorm    
Averages and records for this station are not official NWS values.
T = Trace of Precipitation, MM = Missing Value Source: NWS Daily Summary

Daily Weather History Graph

Daily Weather History Graph

Search for Another Location

Airport:

Trip Planner

Search our weather history database for the weather conditions in past years. The results will help you decide how hot, cold, wet, or windy it might be!

Date:

Astronomy

May. 14, 2014 Rise Set
Actual Time 6:05 AM EDT 8:18 PM EDT
Civil Twilight 5:35 AM EDT 8:48 PM EDT
Nautical Twilight 4:59 AM EDT 9:24 PM EDT
Astronomical Twilight 4:20 AM EDT 10:04 PM EDT
Moon 8:22 PM EDT (5/14) 6:02 AM EDT (5/14)
Length of Visible Light 15h 12m
Length of Day
14h 13m
Full, 100% of the Moon is Illuminated
May 14
Full
May 14
Full
May 21
Last Quarter
May 28
New
Jun 5
First Quarter

Hourly Weather History & Observations

Time (EDT) Temp. Dew Point Humidity Pressure Visibility Wind Dir Wind Speed Gust Speed Precip Events Conditions
12:15 AM 62.4 °F 59.2 °F 89% 30.20 in 10.0 mi Calm Calm - N/A   Clear
12:35 AM 62.1 °F 59.4 °F 91% 30.20 in 7.0 mi Calm Calm - N/A   Clear
12:55 AM 61.7 °F 59.2 °F 91% 30.19 in 7.0 mi Calm Calm - N/A   Clear
1:15 AM 61.2 °F 59.0 °F 93% 30.19 in 7.0 mi Calm Calm - N/A   Clear
1:35 AM 61.2 °F 58.8 °F 92% 30.18 in 7.0 mi Calm Calm - N/A   Clear
2:15 AM 59.9 °F 57.6 °F 92% 30.17 in 7.0 mi Calm Calm - N/A   Clear
2:35 AM 60.3 °F 58.3 °F 93% 30.17 in 4.0 mi Calm Calm - N/A   Clear
2:55 AM 59.9 °F 58.3 °F 94% 30.16 in 5.0 mi Calm Calm - N/A   Clear
3:15 AM 58.8 °F 57.0 °F 94% 30.16 in 3.0 mi Calm Calm - N/A   Clear
3:35 AM 58.1 °F 56.3 °F 94% 30.16 in 3.0 mi Calm Calm - N/A   Clear
3:55 AM 58.3 °F 56.7 °F 94% 30.16 in 1.5 mi Calm Calm - N/A   Mist
4:15 AM 57.4 °F 55.9 °F 95% 30.16 in 7.0 mi Calm Calm - N/A   Scattered Clouds
4:35 AM 57.4 °F 55.8 °F 94% 30.17 in 7.0 mi Calm Calm - N/A   Scattered Clouds
4:55 AM 57.7 °F 56.3 °F 95% 30.17 in 1.0 mi Calm Calm - N/A   Overcast
5:15 AM 58.8 °F 57.4 °F 95% 30.17 in 1.0 mi Calm Calm - N/A   Overcast
5:35 AM 57.7 °F 56.3 °F 95% 30.18 in 0.2 mi Calm Calm - N/A Fog Fog
5:55 AM 59.4 °F 58.1 °F 96% 30.19 in 0.2 mi Calm Calm - N/A Fog Fog
6:15 AM 58.5 °F 57.2 °F 96% 30.19 in 0.2 mi Calm Calm - N/A Fog Fog
6:35 AM 59.2 °F 58.1 °F 96% 30.20 in 0.2 mi Calm Calm - N/A Fog Fog
6:55 AM 59.9 °F 58.5 °F 95% 30.20 in 0.2 mi Calm Calm - N/A Fog Fog
7:15 AM 60.1 °F 58.8 °F 96% 30.20 in 0.2 mi Calm Calm - N/A Fog Fog
7:35 AM 60.3 °F 59.0 °F 96% 30.21 in 0.2 mi Calm Calm - N/A Fog Fog
7:55 AM 60.8 °F 59.4 °F 95% 30.22 in 0.5 mi Calm Calm - N/A Fog Fog
8:15 AM 61.0 °F 59.9 °F 96% 30.22 in 0.2 mi North 3.5 mph - N/A Fog Fog
8:35 AM 61.3 °F 60.1 °F 96% 30.22 in 0.5 mi Calm Calm - N/A Fog Fog
8:55 AM 61.7 °F 60.3 °F 95% 30.22 in 1.2 mi Calm Calm - N/A   Overcast
9:15 AM 61.9 °F 60.8 °F 96% 30.22 in 1.5 mi Calm Calm - N/A   Overcast
9:35 AM 62.6 °F 61.3 °F 96% 30.21 in 5.0 mi Calm Calm - N/A   Overcast
9:55 AM 63.5 °F 62.1 °F 95% 30.21 in 7.0 mi Calm Calm - N/A   Overcast
10:15 AM 65.7 °F 63.5 °F 93% 30.21 in 7.0 mi NE 3.5 mph - N/A   Overcast
10:35 AM 67.5 °F 62.4 °F 84% 30.20 in 10.0 mi East 3.5 mph - N/A   Scattered Clouds
10:55 AM 69.6 °F 62.4 °F 78% 30.21 in 10.0 mi North 3.5 mph - N/A   Scattered Clouds
11:35 AM 72.3 °F 63.0 °F 72% 30.20 in 10.0 mi East 3.5 mph - N/A   Mostly Cloudy
11:55 AM 73.4 °F 63.0 °F 70% 30.20 in 10.0 mi SSE 4.6 mph - N/A   Overcast
12:15 PM 75.4 °F 64.2 °F 68% 30.20 in 10.0 mi South 4.6 mph - N/A   Overcast
12:55 PM 76.3 °F 64.4 °F 67% 30.19 in 10.0 mi South 3.5 mph - N/A   Mostly Cloudy
1:15 PM 75.6 °F 64.8 °F 69% 30.18 in 10.0 mi SW 8.1 mph - N/A   Mostly Cloudy
1:35 PM 74.8 °F 64.6 °F 70% 30.17 in 10.0 mi SW 5.8 mph - N/A   Mostly Cloudy
1:55 PM 77.4 °F 64.4 °F 64% 30.17 in 10.0 mi South 8.1 mph - N/A   Scattered Clouds
2:15 PM 77.2 °F 64.2 °F 64% 30.16 in 10.0 mi South 6.9 mph - N/A   Scattered Clouds
2:35 PM 77.0 °F 63.9 °F 64% 30.16 in 10.0 mi SSW 9.2 mph - N/A   Scattered Clouds
2:55 PM 75.9 °F 63.0 °F 64% 30.15 in 10.0 mi South 11.5 mph - N/A Thunderstorm Mostly Cloudy
3:15 PM 75.9 °F 62.6 °F 63% 30.15 in 10.0 mi South 10.4 mph 16.1 mph N/A   Scattered Clouds
3:35 PM 76.6 °F 63.3 °F 63% 30.14 in 10.0 mi South 8.1 mph - N/A   Clear
4:15 PM 75.7 °F 62.4 °F 63% 30.13 in 10.0 mi South 9.2 mph - N/A   Clear
4:35 PM 76.1 °F 62.4 °F 62% 30.13 in 10.0 mi South 11.5 mph 16.1 mph N/A   Clear
4:55 PM 75.2 °F 62.6 °F 65% 30.12 in 10.0 mi South 9.2 mph - N/A   Clear
5:15 PM 75.6 °F 63.0 °F 65% 30.12 in 10.0 mi South 10.4 mph - N/A   Clear
5:35 PM 74.5 °F 63.0 °F 67% 30.13 in 10.0 mi South 10.4 mph 18.4 mph N/A   Clear
5:55 PM 72.9 °F 62.1 °F 69% 30.13 in 10.0 mi SSE 5.8 mph - N/A   Scattered Clouds
6:15 PM 72.5 °F 62.1 °F 70% 30.13 in 10.0 mi South 11.5 mph - N/A   Scattered Clouds
6:35 PM 70.5 °F 61.9 °F 74% 30.12 in 10.0 mi SSW 10.4 mph - N/A   Scattered Clouds
6:55 PM 68.9 °F 61.7 °F 78% 30.12 in 10.0 mi South 12.7 mph - N/A   Clear
7:15 PM 68.2 °F 61.2 °F 78% 30.12 in 10.0 mi SSW 6.9 mph - N/A   Clear
7:35 PM 68.4 °F 60.8 °F 77% 30.12 in 10.0 mi South 6.9 mph - N/A   Clear
7:55 PM 67.1 °F 60.8 °F 80% 30.13 in 10.0 mi SSW 10.4 mph - N/A   Scattered Clouds
8:15 PM 66.2 °F 60.3 °F 81% 30.13 in 10.0 mi South 10.4 mph - N/A   Scattered Clouds
8:35 PM 65.7 °F 60.1 °F 82% 30.13 in 10.0 mi South 8.1 mph - N/A   Clear
8:55 PM 64.6 °F 59.9 °F 85% 30.13 in 10.0 mi SW 3.5 mph - N/A   Clear
9:15 PM 63.7 °F 59.9 °F 87% 30.14 in 7.0 mi SW 4.6 mph - N/A   Clear
9:35 PM 65.1 °F 60.8 °F 86% 30.15 in 10.0 mi SW 3.5 mph - N/A   Mostly Cloudy
9:55 PM 64.6 °F 60.6 °F 87% 30.15 in 7.0 mi Calm Calm - N/A   Overcast
10:15 PM 63.7 °F 60.3 °F 89% 30.15 in 7.0 mi Calm Calm - N/A   Mostly Cloudy
10:35 PM 64.6 °F 61.0 °F 88% 30.16 in 10.0 mi WSW 3.5 mph - N/A   Overcast
10:55 PM 65.3 °F 60.8 °F 85% 30.16 in 10.0 mi Calm Calm - N/A   Overcast
11:15 PM 65.3 °F 61.2 °F 86% 30.16 in 10.0 mi SSW 3.5 mph - N/A   Overcast
11:35 PM 65.1 °F 61.3 °F 88% 30.15 in 7.0 mi Calm Calm - N/A   Mostly Cloudy
11:55 PM 64.6 °F 61.2 °F 89% 30.14 in 5.0 mi Calm Calm - N/A   Clear